Temperature
16 16 16 15 15 15 15 15 15 15 15 15 15 15 15 15 15 15 15 15 15 15 15 15 15 15 15 15 15 15 15 15 15 15 15 15 15 15 15 15 15 15 15
16 16 15 15 15 15 15 15 15 15 15 15 15 15 15 15 14 15 15 15 15 15 15 15 15 15 15 15 15 15 15 15 15 15 15 15 15 15 15 15 15 15 15
16 16 15 15 15 15 15 15 15 15 15 15 15 14 14 14 14 14 14 14 14 14 14 14 14 15 15 15 14 14 14 14 14 14 14 14 15 15 15 15 14 14 14
15 15 15 15 15 15 15 15 15 15 15 14 14 14 14 14 14 14 14 14 14 14 14 14 14 14 14 14 14 14 14 14 14 14 14 14 14 14 14 14 14 14 14
15 15 15 15 15 15 15 15 14 14 14 14 14 14 14 14 14 14 14 14 14 14 14 14 14 14 14 14 14 14 14 14 14 14 14 14 14 14 14 14 14 14 14
15 15 15 15 15 14 14 14 14 14 14 14 14 14 14 14 14 14 13 13 14 14 14 14 14 14 14 14 14 14 13 14 14 14 13 14 14 14 14 14 14 14 14
15 15 15 15 14 14 14 14 14 14 14 14 14 14 13 13 13 13 13 13 13 13 13 13 14 14 13 13 13 13 13 13 13 13 13 13 14 14 13 13 13 14 13
14 14 14 14 14 14 14 14 14 14 14 14 14 13 13 13 13 13 13 13 13 13 13 13 13 13 13 13 13 13 13 13 13 13 13 13 13 13 13 13 13 13 13
14 14 14 14 14 14 14 14 14 14 14 14 14 13 13 13 12 12 12 13 13 13 13 13 13 13 13 13 13 13 13 13 13 13 13 13 13 13 13 13 13 13 13
14 14 14 14 14 14 14 14 14 14 14 14 13 13 13 13 13 12 12 12 12 12 12 12 12 12 12 12 13 13 13 13 13 12 12 12 12 12 12 12 12 12 13
14 14 14 14 14 14 14 14 14 14 14 14 13 13 13 13 13 12 12 12 12 12 12 12 12 12 12 12 12 12 12 12 12 12 12 12 12 12 12 12 12 12 12
14 14 14 14 14 14 14 14 14 13 13 13 13 13 13 13 13 12 12 12 12 12 11 11 12 12 12 12 12 12 12 12 12 12 12 12 12 12 12 12 12 12 12
14 14 14 14 14 14 14 13 13 13 13 13 13 13 13 13 12 12 12 11 11 11 11 11 11 11 11 11 11 11 11 12 12 12 12 11 11 11 11 11 11 11 11
13 13 13 13 13 13 13 13 13 13 13 13 13 13 13 12 12 12 12 12 11 11 11 11 11 11 11 11 11 11 11 11 11 11 11 11 11 11 11 11 11 11 11
13 13 13 13 13 13 13 13 13 13 13 13 12 12 12 12 12 12 12 12 11 11 11 11 10 10 10 11 11 11 11 11 11 11 11 11 11 11 11 11 11 11 11
13 13 13 13 13 13 13 13 13 13 12 12 12 12 12 12 12 12 11 11 11 11 11 11 11 10 10 10 10 10 10 11 11 11 11 11 11 11 11 11 11 11 11
13 12 12 12 12 12 12 12 12 12 12 12 12 12 12 12 12 12 11 11 11 11 11 11 11 10 10 10 10 10 10 11 11 11 10 10 10 11 10 10 10 10 10
12 12 12 12 12 12 12 12 12 12 12 12 12 12 12 12 12 11 11 11 11 11 11 11 11 10 10 10 10 10 10 10 10 10 10 10 10 10 10 10 10 10 10
12 12 12 12 12 12 12 12 12 12 12 12 12 12 12 12 11 11 11 11 11 11 11 11 10 10 10 10 10 10 10 10 10 10 10 10 10 10 10 10 10 10 10
12 12 12 12 12 12 11 11 11 11 11 11 12 12 11 11 11 11 11 11 11 11 11 10 10 10 10 10 10 10 10 10 10 10 10 10 10 10 10 10 10 10 10
11 11 11 11 11 11 11 11 11 11 11 11 11 11 11 11 11 11 11 11 11 11 10 10 10 10 10 10 10 9 9 10 10 10 10 10 10 10 10 10 10 10 10
11 11 11 11 11 11 11 11 11 11 11 11 11 11 11 11 11 11 11 10 10 10 10 10 10 10 10 9 9 9 9 9 9 9 9 9 9 9 9 9 9 9 9
11 11 11 10 10 10 10 10 10 10 10 11 11 11 11 11 11 11 11 10 10 10 10 10 10 10 10 9 9 9 9 9 9 9 9 9 9 9 9 9 9 9 9
10 10 10 10 10 10 10 10 10 10 10 10 10 10 10 10 10 10 10 10 10 10 10 10 10 9 9 9 9 9 9 9 9 9 9 9 9 9 9 9 9 9 9
10 10 10 10 10 10 10 10 10 10 10 10 10 10 10 10 10 10 10 10 10 10 9 9 9 9 9 9 9 9 9 9 9 9 8 8 9 9 9 9 9 9 9
10 10 10 10 10 10 9 9 9 9 9 10 10 10 10 10 10 9 9 9 9 9 9 9 9 9 9 9 9 9 8 8 8 8 8 8 8 8 8 8 8 8 8
Wind_Speed
3 3 3 4 5 6 5 6 6 7 7 7 7 8 7 7 7 6 7 10 10 10 10 10 9 9 9 8 9 8 8 8 7 6 6 6 6 7 7 8 9 9 9
4 4 4 4 5 5 6 6 6 6 5 6 6 7 6 6 6 6 6 7 9 10 10 9 9 9 9 9 9 9 8 8 7 7 7 6 6 7 8 8 9 9 9
6 5 4 4 4 6 7 7 7 6 6 6 5 5 5 6 6 6 7 7 7 9 10 10 9 9 9 9 10 10 9 8 7 7 7 7 7 7 7 8 8 8 9
7 6 4 3 5 6 6 5 4 5 5 4 4 4 4 5 5 5 7 7 6 6 8 9 9 9 9 10 10 10 10 9 8 8 8 7 7 7 7 7 7 8 8
7 6 5 4 5 5 4 4 4 4 4 4 4 4 3 3 4 5 5 6 6 6 6 8 9 10 9 9 10 9 9 9 9 8 8 8 7 7 7 7 7 7 7
7 7 5 5 5 4 4 4 4 4 3 3 5 5 4 3 4 4 4 4 5 5 6 6 7 7 9 9 8 8 9 10 9 8 8 7 7 7 7 7 7 7 7
5 6 4 4 4 4 3 4 4 5 3 3 4 4 4 5 5 4 4 4 4 5 5 6 6 6 6 7 8 7 8 8 8 8 7 7 7 6 6 6 6 6 6
5 5 4 3 3 3 3 3 3 3 1 1 3 3 2 4 4 5 3 3 4 4 5 5 5 6 6 5 6 7 7 7 8 8 8 7 7 7 7 7 7 7 6
4 4 4 4 3 3 3 2 3 4 2 1 1 3 3 1 1 3 4 4 4 4 4 4 4 4 5 5 5 6 7 7 7 7 8 7 7 7 7 7 7 6 6
3 4 4 4 3 2 2 2 2 2 3 1 1 1 2 3 2 1 3 4 4 4 4 4 4 4 4 4 5 5 6 6 6 6 7 8 7 7 7 6 6 6 6
1 2 3 3 3 2 2 2 2 2 2 2 1 1 2 2 2 3 0 3 3 3 3 3 3 3 3 3 3 4 5 5 6 6 6 7 7 6 6 6 6 5 5
1 1 2 2 2 2 2 2 3 3 2 2 2 2 2 2 2 2 2 1 1 3 3 3 3 3 3 3 3 4 4 5 6 6 6 6 6 6 6 6 6 6 6
1 1 0 1 1 2 2 2 3 2 3 3 3 2 2 2 2 3 3 1 0 2 2 2 2 3 3 3 3 4 4 4 5 5 5 5 5 5 5 5 5 5 5
1 1 1 1 1 2 2 2 2 2 2 2 2 3 2 1 2 3 3 3 1 1 2 2 2 2 3 3 3 3 3 4 4 4 4 4 5 4 4 4 4 4 4
1 1 1 1 1 1 2 2 2 2 2 2 2 2 2 1 1 2 2 4 4 1 2 2 2 2 2 2 2 2 1 2 2 2 3 4 4 4 3 3 3 3 4
1 1 0 0 1 1 1 2 1 2 3 2 2 2 1 1 1 1 2 2 2 3 2 2 2 2 1 2 2 2 0 1 1 2 2 3 3 3 3 2 3 3 3
1 1 1 1 1 1 1 2 2 3 3 2 2 2 2 2 2 1 1 2 2 2 2 2 1 1 0 1 1 2 2 1 0 1 1 2 2 3 3 2 2 1 2
1 1 1 1 0 0 1 1 2 3 3 3 3 3 2 2 2 2 2 1 2 2 3 2 1 1 1 1 0 0 1 1 1 1 2 1 1 1 1 1 1 1 1
1 1 1 1 1 1 1 2 2 3 3 4 4 4 3 3 2 2 2 2 1 1 2 3 2 1 1 0 1 1 1 1 1 1 2 2 1 0 0 1 1 1 1
2 1 1 1 1 1 1 2 1 1 3 3 3 4 4 5 5 4 3 3 3 2 2 2 1 1 1 1 0 1 1 2 2 1 1 1 2 2 2 1 1 2 2
2 1 1 0 1 1 1 2 2 2 3 3 2 2 3 4 5 4 4 4 4 3 2 2 2 1 1 1 1 1 1 2 2 1 0 1 1 1 2 3 3 3 3
1 1 1 1 0 1 2 2 1 2 3 3 3 2 2 3 3 4 4 5 5 5 4 3 2 3 4 3 2 2 1 0 2 2 1 2 1 2 3 4 4 4 4
2 1 2 1 1 2 2 2 1 2 2 3 4 3 2 2 2 2 3 3 3 4 6 5 5 5 5 5 4 3 3 2 3 2 2 2 2 3 4 5 5 5 4
2 2 3 2 2 2 2 2 2 2 2 3 3 4 4 3 3 3 3 3 3 3 5 4 5 6 5 5 5 4 4 2 1 1 2 2 2 3 3 5 7 7 6
2 2 3 3 3 3 3 2 1 1 2 3 3 3 4 4 4 4 4 3 3 3 4 5 5 5 5 6 4 3 2 1 2 2 2 2 2 2 2 3 6 7 8
3 3 3 3 4 4 4 3 1 1 2 3 3 3 4 4 4 5 5 5 4 4 3 3 3 3 4 4 6 5 5 3 1 2 2 2 2 1 2 2 3 4 6
Wind_Direction
85 80 75 76 76 77 80 80 78 76 76 76 82 85 78 76 74 70 64 65 67 65 65 63 63 61 60 60 61 62 69 75 75 76 75 84 87 91 89 86 86 85 86
97 94 88 85 80 84 84 84 82 80 76 78 72 74 76 72 72 67 59 57 60 59 55 57 58 57 59 59 60 61 69 76 76 71 67 74 86 91 92 90 89 88 91
105 95 94 91 87 91 87 83 77 75 76 74 65 65 67 65 69 66 60 56 51 52 51 52 53 53 55 53 56 61 66 70 72 71 70 69 82 87 91 92 93 91 93
104 93 89 89 95 94 90 89 79 76 68 66 63 56 59 62 60 64 64 59 54 49 44 46 50 49 51 52 55 61 63 65 67 70 70 70 77 84 93 97 95 91 91
105 100 95 90 96 89 85 91 80 88 85 73 68 59 49 52 53 66 63 59 58 55 46 43 46 48 51 52 55 60 62 65 64 66 68 68 75 84 90 95 99 96 94
106 105 98 92 93 88 81 87 88 78 87 87 78 59 41 38 48 52 53 54 51 51 48 45 41 41 45 51 53 56 60 64 62 60 62 65 74 82 87 88 92 93 94
106 109 101 98 97 101 109 109 101 88 77 87 79 49 32 31 42 38 39 46 42 42 44 45 46 43 41 44 46 52 60 63 60 59 58 64 70 80 89 91 93 95 96
103 117 115 120 111 106 97 102 113 106 84 71 108 92 38 12 14 21 25 39 30 37 40 43 45 44 44 42 42 54 57 59 60 57 59 64 69 78 87 90 94 90 96
97 110 120 125 126 125 129 131 132 129 136 14 87 131 132 184 338 355 10 20 17 24 25 33 38 40 42 46 45 57 59 55 58 54 57 62 69 74 86 92 92 93 93
93 107 112 120 130 133 138 148 140 142 136 134 21 57 127 149 141 5 345 356 14 24 14 26 33 36 38 44 50 60 62 60 57 58 56 57 69 75 81 90 93 97 95
53 106 118 118 124 140 147 143 135 134 136 144 142 108 75 71 97 134 232 335 355 356 1 10 29 30 31 45 51 56 64 68 64 60 55 57 62 71 76 81 94 98 96
345 29 122 118 136 150 159 156 147 140 137 128 122 121 134 132 146 137 159 238 327 328 352 10 24 24 22 36 50 66 73 71 65 59 53 53 56 60 72 80 85 89 91
331 291 186 152 161 173 162 150 137 140 139 130 135 135 139 151 150 141 139 161 302 318 346 355 357 15 19 25 34 60 79 75 66 63 57 54 52 55 61 75 85 88 91
246 276 255 194 188 168 153 139 130 149 135 139 144 143 133 152 143 145 154 150 120 350 349 312 334 359 3 12 31 55 73 73 70 74 64 61 54 55 56 64 82 84 88
228 260 318 246 236 174 158 144 144 152 144 154 160 146 133 158 152 157 152 156 154 178 270 278 303 324 354 12 29 59 83 76 70 86 75 65 57 53 54 56 67 87 94
206 159 95 86 211 194 177 152 160 160 151 172 163 142 137 151 149 149 157 166 156 164 206 244 247 271 331 27 44 55 46 46 57 128 98 86 71 60 57 53 64 86 98
188 174 188 157 154 199 200 175 192 177 174 180 175 159 173 158 145 143 150 151 149 144 179 251 253 279 12 7 33 29 10 6 302 189 147 111 90 71 56 53 59 68 98
191 190 174 143 172 221 188 179 215 202 191 191 195 173 186 166 154 159 152 161 178 173 168 193 235 259 267 249 198 331 357 4 312 214 199 167 117 76 42 43 32 9 152
164 157 128 138 192 223 212 213 213 210 200 201 197 186 190 169 181 189 172 172 184 169 158 170 211 233 265 304 10 337 342 352 332 241 225 224 216 217 313 351 346 308 245
161 173 171 188 216 229 221 209 209 214 198 203 199 193 192 188 192 192 185 182 168 146 142 155 185 219 239 275 110 284 319 323 313 279 251 244 237 250 264 274 282 267 253
168 165 154 216 309 268 256 237 210 205 200 204 212 209 207 201 198 194 187 180 164 158 159 165 189 216 226 215 222 220 253 296 306 236 307 298 276 269 266 262 259 260 250
187 164 178 184 291 290 292 261 201 203 205 199 214 232 232 212 207 199 188 174 168 171 179 183 208 217 228 220 210 208 192 210 275 237 189 273 238 268 261 244 246 253 249
197 203 221 212 225 254 301 295 229 193 207 211 212 213 220 228 198 188 192 187 196 199 191 189 202 216 214 212 198 203 209 212 235 227 168 240 247 258 257 250 247 248 254
208 216 224 218 222 250 281 287 248 189 213 231 221 207 206 225 209 189 186 194 221 231 226 213 211 219 220 210 201 201 206 217 260 246 179 220 238 249 263 247 247 244 248
221 222 221 214 224 258 273 279 261 180 232 251 247 232 217 211 216 192 180 203 236 261 257 246 243 242 245 231 199 147 148 156 254 247 198 201 225 248 262 258 253 248 245
229 232 235 229 229 245 261 262 247 199 236 258 261 256 243 226 221 200 192 197 221 243 250 266 267 261 246 232 208 190 188 187 202 238 221 190 206 189 283 271 255 249 246
Height
1528 1528 1528 1528 1528 1528 1528 1528 1528 1528 1528 1528 1528 1528 1527 1527 1527 1527 1526 1526 1525 1525 1524 1523 1522 1521 1520 1519 1518 1517 1516 1516 1516 1516 1516 1516 1515 1515 1515 1515 1515 1516 1516
1530 1530 1529 1529 1530 1530 1530 1530 1530 1530 1529 1529 1529 1529 1529 1529 1528 1528 1527 1527 1526 1526 1525 1524 1523 1522 1521 1520 1518 1517 1517 1516 1516 1516 1516 1515 1515 1515 1515 1515 1516 1516 1516
1532 1531 1531 1531 1531 1531 1531 1531 1531 1531 1531 1531 1531 1531 1530 1530 1530 1529 1529 1528 1528 1527 1526 1525 1524 1523 1522 1520 1519 1518 1517 1517 1517 1516 1516 1515 1515 1515 1515 1516 1516 1517 1517
1533 1533 1533 1533 1533 1533 1533 1533 1533 1532 1532 1532 1532 1532 1532 1531 1531 1531 1530 1529 1529 1528 1527 1526 1525 1523 1522 1521 1520 1519 1519 1518 1517 1517 1516 1516 1515 1515 1515 1516 1516 1517 1518
1534 1534 1534 1534 1534 1534 1534 1534 1534 1533 1533 1533 1533 1533 1533 1533 1532 1532 1531 1531 1530 1529 1528 1527 1526 1524 1523 1522 1521 1521 1520 1519 1518 1518 1517 1516 1516 1516 1516 1516 1517 1517 1518
1534 1534 1534 1534 1535 1535 1535 1535 1534 1534 1534 1534 1534 1534 1534 1534 1533 1533 1533 1532 1531 1530 1529 1528 1527 1525 1524 1524 1523 1522 1521 1520 1519 1518 1517 1516 1516 1515 1515 1516 1517 1518 1519
1535 1535 1535 1535 1535 1535 1535 1535 1535 1535 1535 1535 1534 1534 1535 1535 1534 1534 1534 1533 1532 1531 1530 1529 1528 1526 1525 1524 1523 1522 1522 1521 1520 1519 1518 1517 1515 1515 1515 1516 1517 1518 1518
1535 1535 1535 1535 1535 1535 1535 1535 1535 1535 1535 1535 1535 1535 1535 1537 1535 1535 1534 1534 1533 1532 1531 1530 1529 1527 1526 1525 1524 1523 1522 1521 1521 1519 1518 1517 1516 1515 1516 1516 1517 1518 1519
1535 1535 1535 1535 1535 1535 1535 1535 1535 1535 1535 1536 1535 1536 1535 1535 1536 1536 1535 1534 1534 1533 1532 1531 1529 1528 1527 1526 1525 1524 1523 1522 1521 1520 1519 1518 1517 1516 1517 1517 1518 1519 1519
1535 1535 1535 1534 1534 1534 1535 1535 1535 1535 1535 1535 1535 1535 1536 1535 1535 1535 1536 1535 1534 1533 1532 1531 1530 1529 1528 1527 1525 1525 1524 1523 1522 1521 1520 1519 1519 1518 1518 1518 1519 1519 1520
1534 1534 1534 1534 1534 1534 1534 1534 1534 1534 1534 1534 1534 1534 1535 1535 1535 1534 1534 1534 1534 1533 1533 1532 1530 1529 1528 1527 1526 1525 1524 1523 1523 1522 1521 1521 1520 1520 1519 1519 1519 1519 1520
1534 1533 1533 1533 1533 1533 1533 1533 1533 1533 1533 1534 1534 1534 1534 1534 1534 1534 1533 1533 1533 1533 1533 1532 1531 1530 1529 1528 1527 1526 1525 1524 1523 1523 1522 1522 1521 1521 1520 1520 1519 1519 1520
1532 1532 1532 1532 1532 1532 1532 1532 1532 1532 1532 1532 1533 1533 1533 1533 1533 1533 1533 1532 1532 1532 1532 1532 1531 1530 1529 1528 1527 1526 1525 1525 1524 1524 1523 1522 1522 1521 1521 1520 1520 1520 1520
1531 1531 1531 1531 1531 1531 1531 1531 1531 1531 1531 1531 1532 1532 1532 1532 1532 1532 1532 1532 1531 1532 1531 1531 1530 1530 1529 1528 1527 1526 1525 1525 1525 1524 1523 1523 1522 1522 1521 1521 1520 1520 1520
1530 1530 1529 1529 1529 1529 1529 1529 1529 1530 1530 1530 1531 1531 1531 1531 1531 1531 1531 1531 1531 1530 1530 1530 1529 1529 1528 1527 1527 1526 1525 1525 1525 1524 1523 1523 1522 1521 1521 1521 1521 1520 1520
1528 1528 1527 1527 1527 1528 1528 1528 1528 1528 1529 1529 1529 1530 1529 1529 1530 1530 1530 1530 1529 1529 1528 1528 1528 1528 1527 1527 1526 1526 1525 1524 1524 1524 1523 1522 1522 1521 1521 1520 1520 1520 1520
1527 1526 1526 1525 1525 1525 1525 1526 1526 1527 1527 1527 1528 1528 1528 1528 1528 1528 1528 1528 1528 1528 1527 1527 1527 1527 1526 1526 1525 1525 1524 1523 1523 1523 1522 1522 1521 1520 1520 1519 1519 1519 1519
1525 1524 1524 1523 1523 1523 1523 1523 1524 1524 1524 1525 1526 1526 1526 1526 1526 1526 1526 1526 1526 1526 1526 1525 1525 1525 1525 1525 1524 1523 1523 1522 1522 1521 1521 1521 1520 1520 1519 1519 1518 1518 1518
1522 1522 1522 1521 1521 1521 1521 1521 1521 1522 1522 1523 1523 1524 1524 1524 1524 1524 1524 1524 1524 1524 1524 1524 1523 1523 1523 1523 1522 1522 1521 1521 1521 1520 1520 1520 1519 1519 1518 1518 1517 1517 1517
1520 1520 1519 1519 1519 1518 1518 1519 1519 1519 1520 1520 1521 1521 1521 1522 1522 1522 1522 1522 1522 1522 1522 1522 1521 1521 1521 1521 1520 1520 1519 1519 1519 1519 1518 1518 1518 1517 1517 1516 1516 1516 1516
1517 1517 1517 1516 1516 1516 1516 1516 1516 1516 1517 1517 1518 1518 1518 1519 1519 1519 1519 1519 1520 1519 1519 1519 1519 1519 1519 1518 1518 1518 1517 1517 1517 1517 1516 1516 1515 1515 1515 1514 1514 1514 1514
1515 1515 1514 1514 1514 1513 1513 1514 1514 1513 1514 1514 1514 1515 1515 1516 1516 1516 1517 1517 1517 1517 1516 1516 1516 1516 1516 1516 1516 1516 1515 1515 1514 1515 1514 1514 1514 1513 1513 1512 1512 1512 1511
1512 1512 1512 1511 1511 1511 1511 1511 1511 1510 1510 1510 1511 1512 1512 1512 1513 1513 1513 1514 1514 1514 1514 1514 1513 1513 1513 1514 1514 1514 1513 1513 1513 1513 1513 1512 1512 1511 1511 1510 1510 1510 1509
1509 1509 1508 1508 1508 1508 1508 1508 1507 1507 1507 1507 1508 1508 1508 1509 1509 1509 1510 1510 1510 1510 1511 1511 1511 1511 1511 1511 1511 1511 1511 1511 1511 1511 1511 1510 1509 1509 1509 1508 1508 1507 1506
1506 1506 1506 1505 1505 1505 1505 1505 1505 1504 1504 1504 1504 1504 1505 1505 1505 1506 1506 1506 1506 1506 1507 1507 1507 1507 1507 1508 1508 1508 1508 1508 1507 1507 1508 1507 1506 1506 1505 1505 1505 1504 1504
1503 1503 1503 1503 1502 1502 1502 1502 1502 1501 1500 1500 1500 1500 1501 1501 1501 1501 1502 1502 1502 1502 1503 1503 1503 1504 1504 1504 1504 1504 1504 1504 1504 1504 1504 1504 1504 1504 1502 1502 1502 1502 1501